Starlink 11468

operational
NORAD ID: 62221 Int'l Des: 2024-231 Owner: SPXS Country: US Constellation: starlink
LEOCIRCULAR

Über Starlink 11468

Beschreibung wird geladen...

Live-Position

3D-Globus wird geladen...

Nächste Überflüge

Höhenverlauf

Altitude vs Time

uPlot chart will show altitude changes over time

Zweizeiliger Elementsatz

1 62221U 24231D 25352.86879881 .00119086 00000-0 97219-3 0 9993
2 62221 53.1566 139.9808 0000954 82.3668 277.7459 15.69748850 60718
Epoch: 18. Dez. 2025 • Age: 30 hours

Aktueller Status

Höhe 374.4 km
Geschwindigkeit 7.68 km/s
Subsatellitenpunkt -44.85°S, 50.26°W
Startdatum 5. Dez. 2024
Alter 1 years
Typ internet

Technische Details

Klassifizierung Payload
Masse 960.00 kg
Trockenmasse 910.00 kg
Gesamtmasse 960.00 kg
Länge 0.30 m
Durchmesser 4.10 m
Spannweite 29.00 m
Form Box + pan
Hersteller SPXS
Bus-Typ Starlink V2MD
Phasenstatus In Orbit
Besitzer/Staat SPXS/US

Große Konstellationen

Loading constellations...